Regional Weather Roundup
Issued by NWS

Home | Current Version | Previous Version | Graphics & Text | Print | Product List | Glossary On
Versions: 1 2 3 4 5 6 7 8 9 10 11 12 13 14 15 16 17 18 19 20 21 22 23 24 25 26 27 28 29 30 31 32 33 34 35 36 37 38 39 40 41 42 43 44 45 46 47 48 49 50
000
ASUS45 KSLC 041310
RWRUT
UTAH REGIONAL WEATHER ROUNDUP
NATIONAL WEATHER SERVICE SALT LAKE CITY UT
700 AM MDT TUE AUG 04 2015

UTZ001>011-023>025-041400-

NORTHERN UTAH

CITY           SKY/WX    TMP DP  RH WIND       PRES   REMARKS
BRIGHAM CITY   CLEAR     55  53  93 CALM      30.12R
HILL AFB       CLEAR     58  54  86 E13       30.13R
LOGAN          FOG       51  50  96 N5        30.14R VSB 3/4
OGDEN          CLEAR     57  54  89 W3        30.11R
PROVO AIRPORT  CLEAR     55  48  76 CALM      30.13S
SALT LAKE CITY CLEAR     60  54  80 SE5       30.10R
VERNAL         CLEAR     54  48  80 W5        30.17R
WENDOVER       CLEAR     61  52  72 CALM      30.10R
HEBER CITY     CLEAR     46  45  93 CALM      30.21R
WEST JORDAN    CLEAR     57  55  94 SW3       30.12R

$$

UTZ012>022-026-027-041400-

SOUTHERN/CENTRAL UTAH

CITY           SKY/WX    TMP DP  RH WIND       PRES   REMARKS
BLANDING       CLEAR     57  48  71 N3        30.28R
BRYCE CANYON   PTCLDY    44  40  85 W10       30.34R
CEDAR CITY     CLEAR     53  42  66 CALM      30.17R
DELTA          CLEAR     60  53  76 S3        30.12R
HANKSVILLE     CLEAR     57  55  94 CALM      30.13R
MILFORD        PTCLDY    52  43  71 NW3       30.13R
MOAB/CYNLANDS  CLEAR     58  56  93 CALM      30.11R
PRICE          CLEAR     57  48  72 NE6       30.20R
ST GEORGE      SUNNY     73  41  31 SE8       29.99R
KANAB          CLEAR     55  43  62 NE6       30.20R

$$

REGIONAL REPORTS     COLORADO/ARIZONA

CITY           SKY/WX    TMP DP  RH WIND       PRES   REMARKS
CRAIG, CO      CLEAR     48  45  89 W3        30.21S
GRAND JUNCTION CLEAR     58  48  69 E3        30.15R
RIFLE          CLEAR     54  52  93 CALM      30.20R
MONTROSE       CLEAR     57  51  80 SE3       30.23R
CORTEZ         CLEAR     54  51  90 E6        30.23R
PAGE, AZ       CLEAR     72  48  42 CALM      30.09R
GRAND CANYON   CLEAR     43  37  79 CALM      30.28R
KINGMAN        CLEAR     66  36  32 SE7       30.01R
FLAGSTAFF      CLEAR     51  36  56 CALM      30.32R

$$

REGIONAL REPORTS    NEVADA/IDAHO/WYOMING

CITY           SKY/WX    TMP DP  RH WIND       PRES   REMARKS
LAS VEGAS, NV  PTCLDY    83  36  18 NW5       29.85R
ELY            CLEAR     50  39  66 S6        30.19R
ELKO           CLEAR     56  41  57 E6        30.10R
POCATELLO, ID  CLEAR     54  53  97 NW3       30.10R
BURLEY         CLEAR     53  50  89 SW3       30.07R
EVANSTON, WY   PTCLDY    49  45  86 S6        30.26R
ROCK SPRINGS   PTCLDY    52  48  86 W20       30.19R
KEMMERER       CLEAR     50  48  93 W9        30.26R

$$


USA.gov is the U.S. government's official web portal to all federal, state and local government web resources and services.